• In Netherlands
  • List of Countries
  • For 7 days
  • Water Temperature
  • Satellite Maps
  • Weather Map
  • Weather Widgets
  • user-avatar
    Login

    Hourly Weather Kapan

    Today, 28 June, Wednesday

    Time Temperature Precipitation Wind Pressure Humidity
    00:00 +21°C° 0 mm 1 mps 683 mmHg 84%
    01:00 +21°C° 0 mm 1 mps 683 mmHg 85%
    02:00 +20°C° 0 mm 1 mps 682 mmHg 85%
    03:00 +20°C° 0 mm 1 mps 682 mmHg 86%
    04:00 +21°C° 0 mm 1 mps 683 mmHg 80%
    05:00 +23°C° 0 mm 1 mps 683 mmHg 75%
    06:00 +24°C° 0 mm 1 mps 684 mmHg 69%
    07:00 +27°C° 0 mm 1 mps 684 mmHg 60%
    08:00 +29°C° 0 mm 2 mps 684 mmHg 51%
    09:00 +31°C° 0 mm 2 mps 684 mmHg 42%
    10:00 +32°C° 0 mm 2 mps 684 mmHg 39%
    11:00 +35°C° 0 mm 2 mps 684 mmHg 35%
    12:00 +36°C° 0 mm 3 mps 683 mmHg 32%
    13:00 +36°C° 0 mm 3 mps 683 mmHg 32%
    14:00 +36°C° 0 mm 3 mps 682 mmHg 32%
    15:00 +36°C° 0 mm 3 mps 682 mmHg 31%
    16:00 +35°C° 0 mm 3 mps 682 mmHg 36%
    17:00 +34°C° 0 mm 3 mps 681 mmHg 40%
    18:00 +31°C° 0 mm 3 mps 681 mmHg 45%
    19:00 +29°C° 0.1 mm 3 mps 681 mmHg 55%
    20:00 +26°C° 0.1 mm 2 mps 681 mmHg 66%
    21:00 +23°C° 0.1 mm 2 mps 681 mmHg 76%
    22:00 +23°C° 0 mm 2 mps 681 mmHg 78%
    23:00 +23°C° 0 mm 2 mps 681 mmHg 80%

    Tomorrow, 29 June, Thursday

    Time Temperature Precipitation Wind Pressure Humidity
    00:00 +21°C° 0 mm 2 mps 681 mmHg 81%
    01:00 +21°C° 0 mm 2 mps 681 mmHg 82%
    02:00 +21°C° 0 mm 1 mps 681 mmHg 83%
    03:00 +21°C° 0 mm 1 mps 681 mmHg 84%
    04:00 +22°C° 0 mm 1 mps 681 mmHg 79%
    05:00 +23°C° 0 mm 1 mps 682 mmHg 74%
    06:00 +24°C° 0 mm 1 mps 682 mmHg 69%
    07:00 +26°C° 0 mm 1 mps 682 mmHg 60%
    08:00 +28°C° 0 mm 2 mps 683 mmHg 50%
    09:00 +30°C° 0 mm 2 mps 683 mmHg 41%
    10:00 +31°C° 0 mm 2 mps 683 mmHg 37%
    11:00 +33°C° 0 mm 3 mps 683 mmHg 33%
    12:00 +34°C° 0 mm 3 mps 683 mmHg 29%
    13:00 +34°C° 0 mm 3 mps 682 mmHg 27%
    14:00 +35°C° 0 mm 3 mps 682 mmHg 26%
    15:00 +35°C° 0 mm 3 mps 681 mmHg 25%
    16:00 +34°C° 0 mm 3 mps 681 mmHg 27%
    17:00 +33°C° 0 mm 3 mps 681 mmHg 28%
    18:00 +31°C° 0 mm 3 mps 681 mmHg 29%
    19:00 +28°C° 0 mm 3 mps 681 mmHg 35%
    20:00 +25°C° 0 mm 2 mps 681 mmHg 40%
    21:00 +21°C° 0 mm 2 mps 681 mmHg 46%
    22:00 +21°C° 0 mm 2 mps 681 mmHg 47%
    23:00 +20°C° 0 mm 2 mps 681 mmHg 48%

    Day after tomorrow, 30 June, Friday

    Time Temperature Precipitation Wind Pressure Humidity
    00:00 +20°C° 0 mm 2 mps 681 mmHg 48%
    01:00 +20°C° 0 mm 2 mps 681 mmHg 49%
    02:00 +19°C° 0 mm 2 mps 681 mmHg 49%
    03:00 +19°C° 0 mm 2 mps 681 mmHg 50%
    04:00 +20°C° 0 mm 2 mps 682 mmHg 47%
    05:00 +21°C° 0 mm 2 mps 682 mmHg 44%
    06:00 +23°C° 0 mm 1 mps 682 mmHg 41%
    07:00 +25°C° 0 mm 2 mps 683 mmHg 34%
    08:00 +27°C° 0 mm 2 mps 683 mmHg 27%
    09:00 +29°C° 0 mm 2 mps 684 mmHg 20%
    10:00 +30°C° 0 mm 2 mps 683 mmHg 19%
    11:00 +31°C° 0 mm 3 mps 683 mmHg 18%
    12:00 +33°C° 0 mm 3 mps 683 mmHg 17%
    13:00 +33°C° 0 mm 3 mps 683 mmHg 17%
    14:00 +34°C° 0 mm 3 mps 683 mmHg 17%
    15:00 +34°C° 0 mm 4 mps 682 mmHg 17%
    16:00 +33°C° 0 mm 4 mps 682 mmHg 19%
    17:00 +31°C° 0 mm 3 mps 682 mmHg 21%
    18:00 +30°C° 0 mm 3 mps 682 mmHg 23%
    19:00 +27°C° 0 mm 3 mps 682 mmHg 28%
    20:00 +25°C° 0 mm 2 mps 683 mmHg 33%
    21:00 +21°C° 0 mm 2 mps 683 mmHg 37%
    22:00 +20°C° 0 mm 2 mps 683 mmHg 39%
    23:00 +20°C° 0 mm 2 mps 683 mmHg 41%

    1 July, Saturday

    Time Temperature Precipitation Wind Pressure Humidity
    00:00 +19°C° 0 mm 2 mps 683 mmHg 43%
    01:00 +19°C° 0 mm 2 mps 683 mmHg 44%
    02:00 +18°C° 0 mm 2 mps 683 mmHg 45%
    03:00 +18°C° 0 mm 2 mps 683 mmHg 47%
    04:00 +19°C° 0 mm 2 mps 684 mmHg 43%
    05:00 +20°C° 0 mm 2 mps 684 mmHg 40%
    06:00 +21°C° 0 mm 2 mps 685 mmHg 36%
    07:00 +24°C° 0 mm 2 mps 685 mmHg 32%
    08:00 +26°C° 0 mm 2 mps 686 mmHg 27%
    09:00 +29°C° 0 mm 2 mps 686 mmHg 23%
    10:00 +30°C° 0 mm 3 mps 686 mmHg 21%
    11:00 +31°C° 0 mm 3 mps 686 mmHg 20%
    12:00 +33°C° 0 mm 4 mps 686 mmHg 18%
    13:00 +33°C° 0 mm 4 mps 685 mmHg 19%
    14:00 +34°C° 0 mm 4 mps 685 mmHg 19%
    15:00 +34°C° 0 mm 4 mps 685 mmHg 20%
    16:00 +33°C° 0 mm 4 mps 685 mmHg 22%
    17:00 +32°C° 0 mm 4 mps 685 mmHg 25%
    18:00 +30°C° 0 mm 4 mps 685 mmHg 27%
    19:00 +27°C° 0 mm 3 mps 685 mmHg 33%
    20:00 +25°C° 0 mm 3 mps 685 mmHg 38%
    21:00 +21°C° 0 mm 2 mps 685 mmHg 44%
    22:00 +21°C° 0 mm 2 mps 685 mmHg 45%
    23:00 +20°C° 0 mm 2 mps 685 mmHg 47%

    2 July, Sunday

    Time Temperature Precipitation Wind Pressure Humidity
    00:00 +19°C° 0 mm 2 mps 685 mmHg 48%
    01:00 +19°C° 0 mm 2 mps 685 mmHg 48%
    02:00 +19°C° 0 mm 2 mps 685 mmHg 47%
    03:00 +19°C° 0 mm 2 mps 684 mmHg 46%
    04:00 +20°C° 0 mm 2 mps 685 mmHg 44%
    05:00 +21°C° 0 mm 2 mps 685 mmHg 42%
    06:00 +23°C° 0 mm 2 mps 685 mmHg 40%
    07:00 +25°C° 0 mm 2 mps 686 mmHg 35%
    08:00 +28°C° 0 mm 2 mps 686 mmHg 31%
    09:00 +31°C° 0 mm 2 mps 686 mmHg 26%
    10:00 +32°C° 0 mm 2 mps 686 mmHg 24%
    11:00 +34°C° 0 mm 3 mps 686 mmHg 22%
    12:00 +35°C° 0 mm 3 mps 685 mmHg 20%
    13:00 +35°C° 0 mm 3 mps 685 mmHg 20%
    14:00 +35°C° 0 mm 4 mps 685 mmHg 20%
    15:00 +36°C° 0 mm 4 mps 684 mmHg 20%
    16:00 +34°C° 0.2 mm 4 mps 684 mmHg 24%
    17:00 +33°C° 0.2 mm 3 mps 684 mmHg 27%
    18:00 +31°C° 0.2 mm 3 mps 683 mmHg 30%
    19:00 +28°C° 0.2 mm 2 mps 683 mmHg 36%
    20:00 +26°C° 0.2 mm 2 mps 683 mmHg 42%
    21:00 +23°C° 0.2 mm 2 mps 683 mmHg 49%
    22:00 +23°C° 0.1 mm 2 mps 683 mmHg 50%
    23:00 +21°C° 0.1 mm 2 mps 683 mmHg 50%

    3 July, Monday

    Time Temperature Precipitation Wind Pressure Humidity
    00:00 +21°C° 0.1 mm 2 mps 683 mmHg 51%
    01:00 +21°C° 0.1 mm 2 mps 683 mmHg 52%
    02:00 +21°C° 0.1 mm 2 mps 683 mmHg 52%
    03:00 +20°C° 0.1 mm 2 mps 682 mmHg 52%
    04:00 +22°C° 0.1 mm 1 mps 683 mmHg 49%
    05:00 +24°C° 0.1 mm 1 mps 683 mmHg 46%
    06:00 +25°C° 0.1 mm 1 mps 683 mmHg 42%
    07:00 +27°C° 0 mm 1 mps 684 mmHg 36%
    08:00 +30°C° 0 mm 1 mps 684 mmHg 30%
    09:00 +32°C° 0 mm 1 mps 684 mmHg 24%
    10:00 +34°C° 0 mm 2 mps 684 mmHg 22%
    11:00 +36°C° 0 mm 2 mps 684 mmHg 20%
    12:00 +37°C° 0 mm 2 mps 683 mmHg 18%
    13:00 +37°C° 0 mm 2 mps 683 mmHg 18%
    14:00 +37°C° 0 mm 2 mps 682 mmHg 18%
    15:00 +38°C° 0 mm 2 mps 682 mmHg 17%
    16:00 +37°C° 0 mm 2 mps 682 mmHg 20%
    17:00 +35°C° 0 mm 2 mps 682 mmHg 22%
    18:00 +34°C° 0 mm 2 mps 681 mmHg 25%
    19:00 +30°C° 0.1 mm 2 mps 681 mmHg 32%
    20:00 +27°C° 0.1 mm 1 mps 681 mmHg 40%
    21:00 +24°C° 0.1 mm 1 mps 681 mmHg 47%
    22:00 +24°C° 0.1 mm 1 mps 681 mmHg 47%
    23:00 +24°C° 0.1 mm 1 mps 681 mmHg 46%
    Show more